144  
ASUS43 KGLD 082008  
RWRGLD  
 
GOODLAND FORECAST AREA HOURLY WEATHER ROUNDUP  
NATIONAL WEATHER SERVICE GOODLAND KS  
100 PM MST THU DEC 08 2022  
   
..OFFICIAL OBSERVATIONS
 
 
 
CITY SKY/WX TMP DP RH WIND PRES REMARKS
 
GOODLAND KS N/A N/A N/A N/A MISG 30.04S  
HILL CITY KS CLOUDY 32 29 88 NW7 30.09S FOG  
IMPERIAL NEB CLOUDY 34 30 85 NW8 30.01F  
MCCOOK NEB CLOUDY 27 25 92 W5 30.05F FOG  
AKRON CO SUNNY 41 29 62 N14 30.03S  
BURLINGTON CO SUNNY 47 29 49 NW21 30.05S  
LIMON CO SUNNY 47 17 30 NW12G23 30.04S  

 
   
..UNOFFICIAL OBSERVATIONS
 
 
 
CITY SKY/WX TMP DP RH WIND PRES REMARKS
 
COLBY KS SUNNY 41 30 65 NW18 30.06S  
NORTON KS CLOUDY 30 28 93 NW8 30.10F FOG  
SHARON SPRINGS N/A 46 32 59 N20G28 N/A  
YUMA CO FAIR 43 21 42 W21G26 30.04R  

 
 
 
CLICK HERE TO GO TO PREVIOUS BULLETINS.

The Nexlab KS Page
The Nexlab CO Page
The Nexlab NE Page Main Text Page